Waarnemingen

Advertentie
Mijn weer
Montpellier, Frankrijk (7643): temperatuur & dauwpunt: 17.01.2018 05:00:00 - 23.01.2018 05:00:00 (CET)Montpellier, Frankrijk (7643): temperatuur 5cm: 17.01.2018 05:00:00 - 23.01.2018 05:00:00 (CET)Montpellier, Frankrijk (7643): temperatuur -20cm & temperatuur -100cm: 17.01.2018 05:00:00 - 23.01.2018 05:00:00 (CET)Montpellier, Frankrijk (7643): windsnelheid & windstoten: 17.01.2018 05:00:00 - 23.01.2018 05:00:00 (CET)Montpellier, Frankrijk (7643): windrichting: 17.01.2018 05:00:00 - 23.01.2018 05:00:00 (CET)Montpellier, Frankrijk (7643): luchtdruk: 17.01.2018 05:00:00 - 23.01.2018 05:00:00 (CET)Montpellier, Frankrijk (7643): zicht: 17.01.2018 05:00:00 - 23.01.2018 05:00:00 (CET)Montpellier, Frankrijk (7643): Zonneschijnduur: 17.01.2018 05:00:00 - 23.01.2018 05:00:00 (CET)Montpellier, Frankrijk (7643): neerslag: 17.01.2018 05:00:00 - 23.01.2018 05:00:00 (CET)
Datum & Tijd tt [°C] td [°C] tt 5cm [°C] tt -20cm [°C] tt -100cm [°C] ff [km/u] ff [kn] fx [km/u] fx [kn] dd ppp [hPa] vv [km] sd [min] rr [mm]
23.01.2018 05:00:00 11,4 3,2 - - - 21 11 34 18 WNW 1024,9 60 - 0,0
23.01.2018 04:00:00 11,8 3,5 11,0 12,4 12,7 16 9 31 17 WNW 1024,4 60 0 0,0
23.01.2018 03:00:00 12,1 3,8 10,7 12,3 12,7 22 12 33 18 W 1024,1 60 0 0,0
23.01.2018 02:00:00 13,3 4,2 12,4 12,4 12,7 25 14 40 22 WNW 1023,1 60 0 0,0
23.01.2018 01:00:00 13,5 5,1 12,5 12,3 12,7 30 16 45 25 WNW 1022,5 60 0 0,0
23.01.2018 00:00:00 13,6 5,7 12,8 12,3 12,7 29 16 49 26 WNW 1022,0 60 0 0,0
22.01.2018 23:00:00 13,8 5,9 12,8 12,3 12,7 34 19 49 26 NW 1021,5 60 0 0,0
22.01.2018 22:00:00 14,1 6,2 13,4 12,3 12,7 36 19 56 30 WNW 1021,5 60 0 0,0
22.01.2018 21:00:00 15,2 6,7 12,1 12,2 12,7 38 21 63 34 WNW 1021,8 60 0 0,0
22.01.2018 20:00:00 14,9 8,8 12,4 12,2 12,7 15 8 46 25 NNW 1021,4 60 0 0,8
22.01.2018 19:00:00 15,0 10,2 13,2 12,2 12,7 19 10 49 27 WNW 1020,9 7 0 0,0
22.01.2018 18:00:00 16,5 8,2 15,9 12,2 12,6 39 21 58 31 W 1019,2 60 0 0,0
22.01.2018 17:00:00 16,9 8,8 16,7 12,1 12,7 39 21 64 35 WNW 1019,5 60 0 0,0
22.01.2018 16:00:00 17,2 8,6 17,2 12,1 12,7 43 23 74 40 WNW 1019,6 51 52 0,0
22.01.2018 15:00:00 16,5 8,5 15,7 12,1 12,6 40 22 67 36 WNW 1018,9 51 0 0,0
22.01.2018 14:00:00 15,9 7,6 15,7 12,1 12,7 26 14 75 40 WNW 1019,6 60 0 0,0
22.01.2018 13:00:00 16,3 7,2 16,3 12,0 12,6 46 25 73 39 WNW 1019,3 37 8 0,0
22.01.2018 12:00:00 16,8 7,2 16,8 12,0 12,6 26 14 52 28 NW 1021,0 52 20 0,0
22.01.2018 11:00:00 16,5 7,2 15,8 12,0 12,6 42 23 64 35 NW 1020,7 60 0 0,0
22.01.2018 10:00:00 15,9 7,1 15,1 12,0 12,6 35 19 59 32 WNW 1020,5 49 0 0,0
22.01.2018 09:00:00 15,5 7,3 13,7 12,0 12,6 20 11 40 22 NNW 1020,3 60 20 0,0
22.01.2018 08:00:00 14,9 7,4 14,0 11,9 12,6 12 6 44 24 ZZW 1019,9 60 0 0,0
22.01.2018 07:00:00 15,3 7,1 14,4 11,9 12,6 14 8 44 24 W 1019,7 60 0 0,0
22.01.2018 06:00:00 15,2 7,5 14,2 11,9 12,6 24 13 44 24 WNW 1019,8 60 0 0,0
22.01.2018 05:00:00 15,4 7,7 14,5 11,8 12,6 20 11 36 19 NW 1020,0 60 0 0,0
22.01.2018 04:00:00 15,8 7,3 14,6 11,8 12,6 9 5 38 20 NW 1019,9 60 0 0,0
22.01.2018 03:00:00 15,4 7,4 14,6 11,8 12,6 21 11 57 31 W 1019,4 60 0 0,0
22.01.2018 02:00:00 15,9 7,1 14,9 11,8 12,6 29 16 50 27 NW 1019,5 60 0 0,0
22.01.2018 01:00:00 15,7 7,7 15,1 11,7 12,6 33 18 53 29 NW 1020,1 60 0 0,0
22.01.2018 00:00:00 16,2 8,4 15,1 11,6 12,6 24 13 44 24 WNW 1020,1 60 0 0,0
21.01.2018 23:00:00 16,1 9,0 15,5 11,6 12,6 29 16 42 23 WNW 1019,8 60 0 0,0
21.01.2018 22:00:00 16,2 9,6 15,5 11,5 12,6 26 14 53 28 WNW 1019,6 60 0 0,0
21.01.2018 21:00:00 16,9 9,3 16,0 11,5 12,6 34 19 59 32 WNW 1019,2 60 0 0,0
21.01.2018 20:00:00 16,9 9,3 16,3 11,5 12,6 28 15 48 26 WNW 1019,1 60 0 0,0
21.01.2018 19:00:00 17,2 9,4 16,4 11,3 12,6 31 17 48 26 WNW 1018,8 60 0 0,0
21.01.2018 18:00:00 17,4 9,6 16,8 11,3 12,6 23 12 53 29 WNW 1017,8 60 8 0,0
21.01.2018 17:00:00 18,2 9,5 18,3 11,2 12,6 31 17 52 28 WNW 1017,0 58 46 0,0
21.01.2018 16:00:00 19,2 9,7 21,6 11,1 12,6 34 18 66 36 NW 1016,7 36 60 0,0
21.01.2018 15:00:00 19,3 9,2 22,2 11,1 12,6 41 22 60 33 NW 1016,1 46 60 0,0
21.01.2018 14:00:00 19,6 9,2 22,5 11,0 12,6 33 18 59 32 NW 1016,2 60 60 0,0
21.01.2018 13:00:00 19,4 9,0 17,5 11,0 12,6 31 17 44 24 NW 1016,7 60 48 0,0
21.01.2018 12:00:00 17,4 8,5 17,5 11,0 12,6 17 9 29 16 NNW 1017,5 60 18 0,0
21.01.2018 11:00:00 16,5 5,7 15,0 10,9 12,6 10 5 19 11 NNO 1017,2 32 47 0,0
21.01.2018 10:00:00 13,6 6,9 12,4 10,9 12,6 11 6 18 10 O 1017,1 59 4 0,0
21.01.2018 09:00:00 14,2 6,5 13,3 10,8 12,6 14 8 29 15 NNW 1016,3 60 13 0,0
21.01.2018 08:00:00 16,1 7,3 15,3 10,8 12,6 25 13 48 26 NW 1015,7 60 0 0,0
21.01.2018 07:00:00 16,7 7,3 16,2 10,8 12,6 42 23 60 32 NW 1014,7 60 0 0,0
21.01.2018 06:00:00 17,0 8,2 16,5 10,8 12,6 34 18 53 29 WNW 1013,7 60 0 0,0
21.01.2018 05:00:00 17,0 8,4 16,3 10,7 12,6 25 14 49 26 WNW 1013,7 60 0 0,0
21.01.2018 04:00:00 17,0 8,4 16,2 10,7 12,6 22 12 57 31 W 1012,9 60 0 0,0
21.01.2018 03:00:00 17,0 8,4 16,0 10,7 12,6 24 13 45 25 W 1013,0 60 0 0,0
21.01.2018 02:00:00 16,6 8,5 15,0 10,6 12,6 16 9 41 22 WZW 1012,0 60 0 0,0
21.01.2018 01:00:00 16,0 9,0 15,2 10,6 12,6 23 12 48 26 W 1011,5 60 0 0,0
21.01.2018 00:00:00 16,1 9,0 15,3 10,6 12,6 29 16 50 27 W 1012,0 60 0 0,0
20.01.2018 23:00:00 16,0 9,2 12,8 10,6 12,6 29 16 52 28 WZW 1011,6 60 0 0,0
20.01.2018 22:00:00 13,1 9,2 12,3 10,6 12,6 25 14 39 21 WZW 1012,2 60 0 0,0
20.01.2018 21:00:00 13,3 9,0 11,9 10,5 12,6 11 6 28 15 WZW 1012,2 60 0 0,0
20.01.2018 20:00:00 12,4 8,3 11,9 10,6 12,6 15 8 23 13 Z 1012,2 60 0 0,0
20.01.2018 19:00:00 13,2 7,8 11,4 10,6 12,6 12 6 24 13 ZW 1012,1 60 0 0,0
20.01.2018 18:00:00 12,0 7,5 11,0 10,5 12,6 12 6 25 14 ZZW 1011,9 60 0 0,0
20.01.2018 17:00:00 12,6 7,3 12,5 10,5 12,6 17 9 39 21 ZW 1011,8 60 2 0,0
20.01.2018 16:00:00 13,3 6,6 14,1 10,6 12,6 27 15 43 23 WZW 1011,8 60 6 0,0
20.01.2018 15:00:00 12,7 6,3 11,1 10,6 12,6 17 9 38 21 ZW 1012,5 52 1 0,0
20.01.2018 14:00:00 11,2 5,9 11,0 10,6 12,6 22 12 34 19 ZW 1014,5 43 0 0,0
20.01.2018 13:00:00 10,8 6,2 11,3 10,6 12,6 16 9 24 13 ZZW 1016,6 55 0 0,0
20.01.2018 12:00:00 10,1 4,0 9,7 10,7 12,6 8 4 14 8 Z 1018,1 60 0 0,0
20.01.2018 11:00:00 9,0 4,0 8,4 10,7 12,6 6 3 13 7 WZW 1019,2 60 0 0,0
20.01.2018 10:00:00 8,2 3,2 7,9 10,7 12,6 12 6 24 13 W 1019,7 60 3 0,0
20.01.2018 09:00:00 8,3 2,9 6,5 10,7 12,6 19 10 25 13 W 1020,3 60 29 0,0
20.01.2018 08:00:00 7,5 1,8 6,4 10,8 12,6 21 12 35 19 W 1020,1 60 0 0,0
20.01.2018 07:00:00 7,7 1,1 5,8 10,8 12,6 15 8 23 13 W 1020,2 60 0 0,0
20.01.2018 06:00:00 7,6 1,4 6,9 10,8 12,6 16 8 30 16 W 1020,2 60 0 0,0
20.01.2018 05:00:00 8,4 1,8 7,7 10,8 12,6 21 11 32 18 WNW 1020,6 60 0 0,0
20.01.2018 04:00:00 9,2 1,1 7,5 10,8 12,6 24 13 35 19 WNW 1020,6 60 0 0,0
20.01.2018 03:00:00 9,1 1,5 8,1 10,8 12,6 14 8 26 14 WNW 1020,8 60 0 0,0
20.01.2018 02:00:00 9,7 1,8 8,1 10,8 12,6 20 11 29 15 WNW 1020,6 60 0 0,0
20.01.2018 01:00:00 9,5 3,0 8,6 10,8 12,6 16 8 27 15 W 1020,5 60 0 0,0
20.01.2018 00:00:00 10,9 3,2 10,1 10,8 12,6 19 11 36 19 WNW 1020,0 60 0 0,0
19.01.2018 23:00:00 10,8 4,3 8,7 10,8 12,6 29 15 37 20 W 1019,9 60 0 0,0
19.01.2018 22:00:00 9,4 3,6 8,5 10,8 12,6 13 7 24 13 W 1019,9 59 0 0,0
19.01.2018 21:00:00 9,6 3,1 8,8 10,8 12,6 16 9 31 17 W 1019,4 60 0 0,0
19.01.2018 20:00:00 9,6 2,7 8,0 10,7 12,6 16 9 38 21 W 1019,4 60 0 0,0
19.01.2018 19:00:00 11,2 2,5 10,4 10,7 12,6 22 12 36 19 W 1018,4 60 0 0,0
19.01.2018 18:00:00 12,2 2,3 11,6 10,7 12,6 29 16 42 23 WNW 1017,5 60 15 0,0
19.01.2018 17:00:00 13,5 3,3 12,9 10,7 12,6 17 9 36 20 NW 1017,0 60 28 0,0
19.01.2018 16:00:00 14,2 3,0 15,1 10,6 12,6 32 17 45 25 NW 1016,9 59 31 0,0
19.01.2018 15:00:00 14,6 3,7 16,0 10,6 12,6 25 14 51 27 NW 1016,4 32 55 0,0
19.01.2018 14:00:00 14,8 3,9 15,9 10,6 12,6 36 19 56 30 NW 1016,5 35 56 0,0
19.01.2018 13:00:00 14,7 2,9 14,8 10,6 12,6 36 19 52 28 NNW 1016,8 47 26 0,0
19.01.2018 12:00:00 15,2 2,4 16,9 10,6 12,6 28 15 49 26 NW 1017,3 42 60 0,0
19.01.2018 11:00:00 13,9 4,5 12,5 10,6 12,6 26 14 42 23 WNW 1017,6 10 52 0,0
19.01.2018 10:00:00 11,9 7,0 10,7 10,6 12,6 21 11 27 14 W 1017,3 10 19 0,0
19.01.2018 09:00:00 10,8 6,7 10,2 10,7 12,6 15 8 24 13 W 1017,0 10 5 0,0
19.01.2018 08:00:00 11,3 6,8 7,6 10,7 12,6 18 10 26 14 W 1016,5 10 0 0,0
19.01.2018 07:00:00 8,6 6,0 7,6 10,7 12,6 13 7 19 10 WZW 1016,2 10 0 0,0
19.01.2018 06:00:00 9,2 5,9 8,2 10,7 12,6 9 5 22 12 ZW 1015,9 10 0 0,0
19.01.2018 05:00:00 9,6 6,1 7,9 10,7 12,6 8 4 17 9 WZW 1016,2 10 0 0,0
19.01.2018 04:00:00 9,4 6,1 8,7 10,7 12,6 16 9 31 17 Z 1016,5 10 0 0,0
19.01.2018 03:00:00 9,4 5,9 8,8 10,7 12,6 15 8 24 13 ZZW 1017,0 10 0 0,0
19.01.2018 02:00:00 10,6 6,0 9,9 10,7 12,6 18 10 36 19 ZW 1017,1 10 0 0,0
19.01.2018 01:00:00 11,4 6,3 10,1 10,7 12,6 22 12 39 21 W 1017,5 10 0 0,0
19.01.2018 00:00:00 10,8 6,0 9,5 10,7 12,6 26 14 39 21 W 1017,9 10 0 0,0
18.01.2018 23:00:00 10,2 5,6 9,3 10,7 12,6 26 14 39 21 W 1018,2 10 0 0,0
18.01.2018 22:00:00 10,3 5,5 8,5 10,7 12,6 18 10 29 16 W 1018,7 10 0 0,0
18.01.2018 21:00:00 10,3 5,7 9,0 10,7 12,6 13 7 30 16 W 1018,9 10 0 0,0
18.01.2018 20:00:00 10,6 5,6 9,5 10,6 12,5 18 10 32 17 W 1019,2 10 0 0,0
18.01.2018 19:00:00 10,9 5,6 9,9 10,6 12,6 21 11 33 18 W 1019,4 10 0 0,0
18.01.2018 18:00:00 11,6 5,7 10,8 10,6 12,5 22 12 42 23 W 1019,4 10 16 0,0
18.01.2018 17:00:00 13,0 5,6 13,3 10,6 12,6 27 15 46 25 W 1019,4 57 58 0,0
18.01.2018 16:00:00 13,9 5,3 15,9 10,5 12,5 35 19 46 25 W 1019,4 10 60 0,0
18.01.2018 15:00:00 14,4 5,5 16,8 10,6 12,6 31 17 43 23 W 1019,5 10 60 0,0
18.01.2018 14:00:00 14,2 5,3 16,1 10,6 12,5 31 17 47 26 W 1020,4 10 57 0,0
18.01.2018 13:00:00 14,2 5,0 15,5 10,6 12,5 32 17 49 26 W 1021,4 49 60 0,0
18.01.2018 12:00:00 13,3 4,7 13,2 10,6 12,5 31 17 42 23 W 1022,4 10 60 0,0
18.01.2018 11:00:00 11,0 4,9 11,2 10,7 12,5 21 11 29 16 ZW 1023,2 10 60 0,0
18.01.2018 10:00:00 9,7 4,1 8,4 10,8 12,6 16 9 27 15 ZW 1023,1 10 34 0,0
18.01.2018 09:00:00 7,7 3,7 4,9 10,8 12,5 13 7 22 12 WZW 1023,0 10 25 0,0
18.01.2018 08:00:00 5,5 2,8 3,8 10,8 12,5 11 6 16 8 ZW 1022,7 10 0 0,0
18.01.2018 07:00:00 5,8 3,0 4,3 10,9 12,5 8 4 21 11 ZZW 1022,7 10 0 0,0
18.01.2018 06:00:00 5,9 2,9 4,0 10,9 12,5 8 4 13 7 ZZW 1022,6 10 0 0,0
18.01.2018 05:00:00 6,0 3,0 4,7 10,9 12,5 11 6 16 8 ZZW 1023,2 10 0 0,0
18.01.2018 04:00:00 7,3 2,8 5,5 11,0 12,5 13 7 20 11 W 1023,9 10 0 0,0
18.01.2018 03:00:00 7,4 2,3 6,3 11,0 12,5 9 5 29 16 ZZW 1024,6 10 0 0,0
18.01.2018 02:00:00 8,6 1,9 7,3 11,0 12,5 22 12 34 18 W 1024,7 10 0 0,0
18.01.2018 01:00:00 8,5 1,6 7,7 11,1 12,5 21 11 29 16 W 1025,2 10 0 0,0
18.01.2018 00:00:00 8,4 2,0 7,4 11,1 12,5 22 12 37 20 W 1024,9 10 0 0,0
17.01.2018 23:00:00 8,6 1,3 7,5 11,1 12,5 26 14 36 19 W 1025,0 10 0 0,0
17.01.2018 22:00:00 8,9 1,1 7,7 11,1 12,5 22 12 31 17 W 1024,8 10 0 0,0
17.01.2018 21:00:00 8,6 0,8 7,3 11,1 12,5 13 7 25 13 W 1024,3 10 0 0,0
17.01.2018 20:00:00 9,5 0,1 8,1 11,1 12,5 13 7 40 21 WZW 1023,8 10 0 0,0
17.01.2018 19:00:00 10,2 -0,6 9,6 11,0 12,5 31 17 50 27 WNW 1022,5 10 0 0,0
17.01.2018 18:00:00 10,6 -1,2 9,2 11,0 12,5 21 11 50 27 W 1022,6 10 13 0,0
17.01.2018 17:00:00 11,8 -0,7 12,4 11,0 12,5 18 10 55 30 WNW 1021,6 10 49 0,0
17.01.2018 16:00:00 12,6 -1,0 13,1 11,0 12,5 39 21 66 35 NNW 1021,0 10 49 0,0
17.01.2018 15:00:00 13,7 -1,1 16,2 11,0 12,5 29 16 72 39 NW 1020,4 10 60 0,0
17.01.2018 14:00:00 12,7 -2,0 16,0 11,0 12,5 35 19 59 32 WNW 1020,5 10 60 0,0
17.01.2018 13:00:00 12,5 0,2 14,2 11,0 12,5 26 14 63 34 WNW 1020,3 10 51 0,0
17.01.2018 12:00:00 12,3 0,1 12,6 10,9 12,4 36 19 71 38 NW 1019,9 43 44 0,0
17.01.2018 11:00:00 12,0 -0,5 11,6 10,9 12,4 41 22 71 38 NW 1019,6 10 60 0,0
17.01.2018 10:00:00 11,3 1,2 11,0 11,0 12,5 24 13 55 30 WNW 1018,5 10 58 0,0
17.01.2018 09:00:00 10,7 0,7 9,7 10,9 12,5 28 15 46 25 WNW 1017,2 10 38 0,0
17.01.2018 08:00:00 10,8 1,1 10,0 10,9 12,5 29 16 63 34 WNW 1016,2 10 0 0,0
17.01.2018 07:00:00 11,3 3,3 10,7 10,9 12,4 34 18 67 36 WNW 1014,8 10 0 0,0
17.01.2018 06:00:00 12,3 2,7 11,6 10,9 12,5 39 21 74 40 NW 1013,6 10 0 0,0
17.01.2018 05:00:00 13,4 2,9 12,6 10,8 12,5 42 23 79 42 NW 1012,4 10 0 0,0

tt = temperatuur
td = dauwpunt
tt 5cm = temperatuur 5cm
tt -20cm = temperatuur -20cm
tt -100cm = temperatuur -100cm
ff = windsnelheid
fx = windstoten
dd = windrichting
ppp = luchtdruk
vv = zicht
sd = Zonneschijnduur
rr = neerslag

Weerstations in de omgeving